Flag for U.S.A. Weather past 2 weeks in St. Croix Falls, Wisconsin, U.S.A.

Now
19 °F

Overcast.


Feels Like: 12 °F
Forecast: 12 / 24 °F
Wind: 5 mph from North

Location: L O Simenstad Municipal Airport

Current Time: Dec 18, 2014 at 5:57:41 AM

Latest Report: Dec 18, 2014 at 5:15 AM


Visibility: 10 mi

Pressure: 30.33 "Hg

Humidity: 92%

Dew point: 17 °F

Location of St. Croix FallsLocation

Historic Weather in St. Croix Falls — Graph

°F

St. Croix Falls temperature yesterday

Maximum temperature yesterday: 19 °F (at 3:35 PM)
Minimum temperature yesterday: 11 °F (at 7:55 AM)
Average temperature yesterday: 15 °F

Past Weeks' High & Low Weather Summary

 TemperatureHumidityPressure
High48 °F (Dec 15, 4:15 AM)100% (Dec 5, 8:15 PM)30.69 "Hg (Dec 5, 8:15 PM)
Low4 °F (Dec 3, 11:15 PM)42% (Dec 4, 1:15 PM)29.72 "Hg (Dec 15, 1:35 PM)
Average28 °F90%30.21 "Hg
* Reported Dec 3 4:15 AM — Dec 18 4:15 AM, St. Croix Falls, Weather by CustomWeather, © 2014

Note: Actual official high and low records may vary slightly from our data, if they occured in-between our weather recording intervals... More about our weather records

Advertising

St. Croix Falls weather history for previous 24 hours

 ConditionsComfort  
Time TempWeatherWind HumidityBarometerVisibility
4:15 AM
Dec 18
19 °FOvercast.No wind90%30.34 "Hg10 mi
3:55 AM18 °FLight snow. Overcast.No wind90%30.35 "Hg10 mi
3:35 AM18 °FLight snow. Overcast.No wind90%30.35 "Hg10 mi
3:15 AM18 °FOvercast.No wind89%30.35 "Hg10 mi
2:55 AM18 °FOvercast.No wind89%30.35 "Hg10 mi
2:35 AM18 °FOvercast.No wind89%30.35 "Hg10 mi
2:15 AM17 °FOvercast.No wind88%30.35 "Hg10 mi
1:55 AM17 °FOvercast.No wind89%30.35 "Hg10 mi
1:35 AM17 °FOvercast.No wind89%30.35 "Hg10 mi
1:15 AM17 °FOvercast.No wind89%30.35 "Hg10 mi
12:55 AM17 °FOvercast.No wind90%30.36 "Hg10 mi
12:35 AM16 °FOvercast.No wind90%30.35 "Hg10 mi
12:15 AM16 °FOvercast.No wind92%30.34 "Hg10 mi
11:55 PM
Dec 17
15 °FOvercast.No wind93%30.35 "Hg10 mi
11:35 PM15 °FOvercast.3 mph92%30.36 "Hg10 mi
11:15 PM15 °FOvercast.No wind92%30.36 "Hg10 mi
10:55 PM15 °FOvercast.No wind93%30.36 "Hg10 mi
10:35 PM14 °FOvercast.No wind92%30.36 "Hg10 mi
10:15 PM14 °FOvercast.No wind94%30.36 "Hg10 mi
9:35 PM11 °FPassing clouds.No wind96%30.36 "Hg10 mi
9:15 PM11 °FClear.No wind96%30.35 "Hg10 mi
8:55 PM12 °FClear.No wind95%30.35 "Hg10 mi
8:35 PM11 °FClear.No wind91%30.34 "Hg10 mi
8:15 PM12 °FClear.No wind94%30.34 "Hg10 mi
7:55 PM12 °FClear.No wind90%30.33 "Hg10 mi
7:35 PM12 °FClear.No wind87%30.33 "Hg10 mi
7:15 PM13 °FClear.No wind87%30.33 "Hg10 mi
6:35 PM13 °FClear.No wind87%30.33 "Hg10 mi
6:15 PM14 °FClear.No wind84%30.34 "Hg10 mi
5:55 PM16 °FClear.No wind80%30.34 "Hg10 mi
5:15 PM17 °FPassing clouds.No wind74%30.34 "Hg10 mi
4:55 PM17 °FPassing clouds.No wind73%30.34 "Hg10 mi
4:15 PM18 °FPartly sunny.5 mph71%30.33 "Hg10 mi
3:55 PM18 °FScattered clouds.5 mph71%30.33 "Hg10 mi
3:35 PM19 °FPartly sunny.6 mph69%30.33 "Hg10 mi
3:15 PM19 °FOvercast.7 mph70%30.33 "Hg10 mi
2:55 PM18 °FPartly sunny.6 mph71%30.32 "Hg10 mi
2:35 PM17 °FScattered clouds.7 mph73%30.32 "Hg10 mi
2:15 PM18 °FPartly sunny.7 mph71%30.32 "Hg10 mi
1:55 PM18 °FOvercast.6 mph73%30.32 "Hg10 mi
1:35 PM18 °FLight snow. Overcast.5 mph75%30.32 "Hg10 mi
1:15 PM17 °FLight snow. Overcast.8 mph75%30.32 "Hg10 mi
12:55 PM17 °FLight snow. Overcast.5 mph77%30.32 "Hg7 mi
12:35 PM17 °FLight snow. Overcast.9 mph75%30.33 "Hg10 mi
12:15 PM17 °FOvercast.8 mph73%30.33 "Hg10 mi
11:55 AM17 °FOvercast.No wind74%30.33 "Hg10 mi
11:35 AM17 °FLight snow. Overcast.8 mph75%30.33 "Hg10 mi
11:15 AM17 °FLight snow. Overcast.8 mph75%30.33 "Hg7 mi
10:55 AM16 °FLight snow. Overcast.7 mph79%30.33 "Hg7 mi
10:35 AM16 °FLight snow. Overcast.5 mph81%30.33 "Hg5 mi
10:15 AM15 °FLight snow. Partly sunny.6 mph82%30.33 "Hg10 mi
9:55 AM15 °FSunny.6 mph84%30.33 "Hg10 mi
9:35 AM13 °FScattered clouds.5 mph86%30.33 "Hg10 mi
9:15 AM12 °FPartly sunny.6 mph87%30.33 "Hg10 mi
8:55 AM12 °FOvercast.6 mph89%30.33 "Hg10 mi
8:35 AM12 °FLight snow. Overcast.6 mph90%30.32 "Hg10 mi
8:15 AM12 °FOvercast.3 mph91%30.31 "Hg10 mi
7:55 AM11 °FOvercast.5 mph92%30.31 "Hg10 mi
7:35 AM12 °FLight snow. Overcast.7 mph91%30.31 "Hg7 mi
7:15 AM12 °FLight snow. Overcast.7 mph92%30.31 "Hg4 mi
6:55 AM12 °FLight snow. Overcast.7 mph92%30.31 "Hg2 mi
6:35 AM12 °FLight snow. Passing clouds.6 mph94%30.31 "Hg10 mi
6:15 AM12 °FPassing clouds.6 mph93%30.31 "Hg10 mi
5:55 AM13 °FPassing clouds.6 mph90%30.30 "Hg10 mi
5:35 AM14 °FMostly cloudy.5 mph90%30.30 "Hg10 mi
5:15 AM14 °FMostly cloudy.6 mph90%30.29 "Hg10 mi
Weather by CustomWeather, © 2014

See weather overviewHow to use our weather pages